www.pogodaiklimat.ru

Погода и климат >> Архив погоды >> Беларусь >> Василевичи


АРХИВ ПОГОДЫ в Василевичах

Время (UTC), дата Ветер
(напр.,м/с)
 
Видим.   Явления Облачность Т
(С)
Тd
(С)
f
(%)
Тe
(С)
Тes
(С)
Комфортность P
(гПа)
Po
(гПа)
Тmin
(С)
Tmax
(С)
R
(мм)
R24
(мм)
S
(см)
15 13.08 СЗ 3
{13}
10 км {гроза, ливн. осадки} [макс. диам. градин 8 мм] 4/3 600 м
[Cu med, cong Ci fib]
+27.1 +20.4 67 +34 +35 очень
душно
1010.5 994.5
18 13.08 З 2 10 км {гроза, ливн. осадки} 6/5 600 м
[Cb calv Ci fib]
+22.9 +19.8 83 +30 +30 очень
душно
1013.0 996.7 +31.0 14
21 13.08 СЗ 2 4000 м дымка 8/0
[Ci fib]
+19.8 +18.7 93 +23 +23 комфорт 1014.2 997.6
00 14.08 штиль 0 4000 м дымка 10/0
[Ci fib]
+17.0 +16.4 96 +17 +17 1014.8 998.1
03 14.08 С 1 1000 м дымка 10/0
[Ac trans Ci fib]
+16.3 +15.9 97 +17 +17 1014.8 998.0
06 14.08 В 1 4000 м слаб. ливневой дождь 9/8 600 м
[Cb calv Ac trans]
+18.9 +18.5 98 +22 +22 комфорт 1014.7 998.1 +16.0 0.3
09 14.08 В 2 4000 м гроза без осадков {ливн. осадки} 10/10 600 м
[Cb cap]
+19.9 +19.2 96 +24 +24 комфорт 1014.1 997.6
12 14.08 В 3 10 км {гроза, ливн. осадки} 10/10 600 м
[Sc]
+21.7 +19.4 87 +27 +27 душно 1011.4 995.0
15 14.08 ЮВ 3 10 км 8/0
[Ci fib]
+24.4 +21.1 82 +31 +33 очень
душно
1008.5 992.3
18 14.08 В 1 4000 м гроза без осадков 10/8 600 м
[Cb cap Ac und]
+22.0 +21.2 95 +28 +28 душно 1006.6 990.3 +25.3 1
21 14.08 З 3
{12}
4000 м дымка {гроза} 10/6 600 м
[Sc Ac trans]
+19.1 +18.4 96 +21 +21 комфорт 1008.6 992.1
00 15.08 С 3
{11}
4000 м слаб. ливневой дождь {гроза} 10/10 600 м
[Cb calv]
+14.9 +14.2 96 +14 +14 1010.9 994.1
03 15.08 С 3 4000 м слаб. ливневой дождь 10/10 600 м
[Cb calv]
+13.4 +12.8 96 +12 +12 1012.8 995.9
06 15.08 С 2 4000 м слаб. ливневой дождь 10/10 600 м
[Cb calv]
+13.0 +12.7 98 +12 +12 1014.9 997.9 +13.0 2
09 15.08 С 4 10 км {ливн. осадки} 10/8 600 м
[Sc Ac trans Ci fib]
+16.5 +12.8 79 +16 +17 1015.3 998.5
12 15.08 С 3 10 км {ливн. осадки} 10/6 600 м
[Sc Cs]
+16.8 +13.1 79 +17 +19 1015.5 998.7
15 15.08 С 2 10 км 10/6 600 м
[Cb calv Ac und]
+15.6 +12.9 84 +15 +16 1014.8 998.0
18 15.08 С 2 4000 м дымка 9/6 600 м
[Cb calv Ac trans]
+14.3 +13.3 94 +14 +14 1015.1 998.2 +17.3 0.0
21 15.08 штиль 0 4000 м слаб. ливневой дождь 10/10 600 м
[Cb calv]
+13.4 +12.8 96 +13 +13 1015.9 998.9
00 16.08 С 1 4000 м в посл. час ливневой дождь 10/10 600 м
[Cb calv]
+13.2 +12.6 96 +13 +13 1015.1 998.1
03 16.08 С 2 4000 м дымка 10/10 600 м
[Sc]
+13.3 +12.7 96 +12 +12 1014.5 997.5
06 16.08 С 2 4000 м дымка {ливн. осадки} 10/10 600 м
[Sc]
+13.9 +13.3 96 +13 +13 1014.7 997.8 +13.0 2
09 16.08 С 3 10 км 10/10 600 м
[Sc]
+15.8 +13.5 86 +15 +15 1014.4 997.6
12 16.08 С 4 10 км 10/10 600 м
[Sc]
+16.9 +12.3 74 +16 +16 1014.7 998.0
15 16.08 С 2
{10}
10 км 10/10 600 м
[Sc]
+15.4 +12.5 83 +15 +15 1014.9 998.1
18 16.08 С 2 4000 м дымка 10/10 600 м
[Sc]
+14.7 +13.7 94 +14 +14 1015.0 998.1 +17.2
21 16.08 С 2 4000 м дымка 9/3 600 м
[Sc Ac trans]
+13.0 +12.3 96 +12 +12 1015.5 998.5
00 17.08 С 1 4000 м дымка 9/0
[Ac trans]
+11.2 +10.6 96 +11 +11 1015.3 998.2
03 17.08 С 2 4000 м дымка 3/0
[Ac trans]
+9.2 +8.4 95 +7 +7 1015.0 997.7
06 17.08 С 2 10 км 6/0
[Ac trans]
+13.4 +10.7 84 +13 +16 1014.9 997.9 +8.8
09 17.08 С 4
{10}
10 км 10/4 600 м
[Cu med, cong Ac und]
+17.0 +11.7 71 +17 +18 1014.4 997.7
12 17.08 С 3 10 км 10/8 600 м
[Sc Ac und]
+18.4 +12.1 67 +19 +19 1013.7 997.1
15 17.08 С 2 10 км 9/8 600 м
[Sc Ac trans]
+18.9 +12.7 67 +20 +21 1013.5 996.9
18 17.08 штиль 0 10 км 8/0
[Ac trans]
+15.3 +13.2 87 +15 +15 1013.7 996.9 +19.8
21 17.08 СЗ 1 4000 м дымка ясно +13.3 +12.3 94 +13 +13 1013.6 996.6
00 18.08 СЗ 1 4000 м дымка ясно +11.8 +11.2 96 +12 +12 1013.9 996.8
03 18.08 СЗ 1 4000 м дымка 3/0
[Ci fib]
+10.1 +9.5 96 +10 +10 1013.9 996.7
06 18.08 СЗ 2 10 км 3/0
[Ci fib]
+16.1 +11.7 75 +16 +21 1013.5 996.7 +9.9
09 18.08 СЗ 4 10 км 6/4 600 м
[Cu hum Ci fib]
+20.8 +10.5 52 +23 +27 комфорт 1013.5 997.0
12 18.08 С 4 20 км 4/4 600 м
[Cu hum]
+23.1 +10.1 44 +25 +29 комфорт 1013.4 997.1
15 18.08 СЗ 3 20 км 3/3 600 м
[Cu hum]
+23.9 +11.2 45 +25 +27 комфорт 1013.8 997.5
18 18.08 штиль 0 10 км ясно +16.1 +13.9 87 +16 +16 1015.0 998.2 +24.5
21 18.08 штиль 0 4000 м дымка ясно +12.4 +11.4 94 +12 +12 1016.4 999.3
00 19.08 штиль 0 4000 м дымка ясно +10.5 +9.9 96 +10 +10 1016.9 999.7
03 19.08 штиль 0 4000 м дымка ясно +9.7 +9.0 95 +9 +9 1017.8 1000.5
06 19.08 штиль 0 10 км ясно +19.2 +15.0 77 +21 +27 комфорт 1018.3 1001.6 +9.6
09 19.08 ЮЗ 3 20 км 1/0
[Ci fib]
+25.4 +14.8 52 +28 +38 жарко 1017.9 1001.7
12 19.08 З 2 20 км 4/0
[Ci fib]
+27.4 +14.2 44 +30 +39 жарко 1017.7 1001.6
15 19.08 Ю 2 20 км 6/0
[Ci fib]
+27.3 +14.5 45 +30 +32 душно 1017.8 1001.7
18 19.08 штиль 0 10 км 3/0
[Ci fib]
+19.5 +16.8 84 +21 +21 комфорт 1019.1 1002.4 +28.6
21 19.08 штиль 0 4000 м дымка ясно +16.5 +14.8 90 +16 +16 1020.0 1003.1
00 20.08 штиль 0 10 км ясно +15.5 +13.6 88 +15 +15 1019.8 1002.9
03 20.08 штиль 0 4000 м дымка 3/0
[Ci fib]
+13.5 +12.7 95 +13 +13 1021.1 1004.0
06 20.08 СВ 1 10 км ясно +20.3 +15.4 73 +24 +29 комфорт 1021.8 1005.2 +13.2
09 20.08 В 2 10 км 1/0
[Ac trans]
+26.2 +17.3 58 +30 +42 душно 1022.0 1005.7

 

Местоположение метеостанции Василевичи (Гомельская область, Беларусь): широта 52.25 долгота 29.84 высота над уровнем моря 142 м.

В архиве по умолчанию представлена погода в Василевичах за последнюю неделю. Архивные данные за месяц целиком и за предыдущие месяцы, начиная с января 2011 года, Вы можете получить, выбрав интересующий диапазон дат из раскрывающегося списка и нажав кнопку "Ввод!".


*Определитесь, кто Вы:
робот инопланетянин человек

Внимание! Время в таблицах - всемирное. Для получения местного времени необходимо прибавить поправку, которая равна 3 ч.

Смотрите также архив погоды в соседних городах и на ближайших метеорологических станциях:

Погода в Мозыре (Гомельская область, Беларусь) (50 км)
Погода в Брагине (Гомельская область, Беларусь) (59 км)
Погода в Жлобине (Гомельская область, Беларусь) (73 км)
Погода в Гомеле (Гомельская область, Беларусь) (78 км)
Погода в Октябре (Гомельская область, Беларусь) (78 км)
Погода в Чернобыле (Киевская область, Украина) (111 км)
Погода в Бобруйске (Могилевская область, Беларусь) (117 км)
Погода в Овруче (Житомирская область, Украина) (127 км)
Погода в Чернигове (Черниговская область, Украина) (130 км)
Погода в Житковичах (Гомельская область, Беларусь) (134 км)

Пояснения к столбцам:

Ветер - указаны скорость ветра в м/с - средняя за 10 мин, порывы в срок и между сроками (в фигурных скобках) и направление, откуда дует ветер: С - северный, СВ - северо-восточный, В - восточный, ЮВ - юго-восточный, Ю - южный, ЮЗ - юго-западный, З - западный, СЗ - северо-западный.
Видимость - горизонтальная дальность видимости в метрах или километрах. При видимости от 1 до 10 км при отсутствии осадков обычно наблюдается дымка, при ухудшении видимости до 1 км и менее - туман. В сухую погоду видимость может ухудшаться дымом, пылью или мглою.
Явления - указаны атмосферные явления, наблюдавшиеся в срок или в последний час перед сроком; фигурными скобками обозначены явления, наблюдавшиеся между сроками (за 1-3 часа до срока); квадратными скобками обозначены град или гололедные отложения с указанием их диаметра в мм.
Облачность - указаны через наклонную черту общая и нижняя облачность в баллах и высота нижней границы облаков в метрах; квадратными скобками обозначены формы облаков: Ci - перистые, Cs - перисто-слоистые, Cc - перисто-кучевые, Ac - высококучевые, As - высокослоистые, Sc - слоисто-кучевые, Ns - слоисто-дождевые, Cu - кучевые, Cb - кучево-дождевые. Подробнее классификацию облаков см. в Атласе облаков (PDF).
T - Температура воздуха - температура, измеренная на высоте 2 м над землей.
Td - Температура точки росы - температура, при понижении до которой содержащийся в воздухе водяной пар достигнет насыщения.
f - Относительная влажность воздуха - влажноcть воздуха, измеренная на высоте 2 м над землей.
Te - Эффективная температура - температура, которую ощущает одетый по сезону человек в тени. Характеристика душности погоды. При расчете учитывается влияние влажности воздуха и скорости ветра на теплоощущения человека.
Tes - Эффективная температура на солнце - температура, которую ощущает человек, с поправкой на солнечный нагрев. Характеристика знойности погоды. Зависит от высоты солнца над горизонтом, облачности и скорости ветра. Ночью, в пасмурную погоду, а также при ветре 12 м/с и более поправка равна нулю.
P - Атмосферное давление - приведенное к уровню моря атмосферное давление.
Po - Атмосферное давление - измеренное на уровне метеостанции атмосферное давление.
Tmin - Минимальная температура - минимум температуры воздуха на высоте 2 м над землей.
Tmax - Максимальная температура - максимум температуры воздуха на высоте 2 м над землей.
R - Количество осадков - Количество выпавших осадков за период времени, мм. При наведении курсора мыши на число - период времени, за который выпало указанное количество осадков.
R24 - Количество осадков - Количество выпавших осадков за 24 часа, мм.
S - Снежный покров - Высота снежного покрова, см. При наведении курсора мыши на число - состояние снежного покрова и степень покрытия местности в баллах.